Location: Cartignies
(50.0929°N, 3.8447°E)
Time: 14:58:49
(UTC+00:00)

ATLAS 3B R/B - Pass Details

Date: 12 January 2026
Orbit: 936 x 1258 km, 63.8° (Epoch: 15 February)

Event Time Altitude Azimuth Distance (km) Brightness Sun altitude
Rises 19:37:02 0° 293° (WNW) 4,186 6.8 -32.9°
Reaches altitude 10° 19:40:17 10° 304° (NW) 3,237 5.9 -33.4°
Maximum altitude 19:47:02 30° 3° (N) 2,101 4.2 -34.5°
Enters shadow 19:47:19 30° 7° (N) 2,103 4.1 -34.5°
